User: anonymous   Login
Location: Columbia
(38.9520°N, 92.3340°W)
Time: 18:57:43
(UTC-05:00)
Language:

Iridium 22 - Orbit

View from above orbital plane
View from above orbital plane
View from above satellite
View from above satellite

Ground track
Ground track

The orbit data is extracted from the following two-line orbital elements,

1 24907U 97043E   15148.28639466  .00000218  00000-0  70619-4 0  9996
2 24907 086.3999 209.8861 0002312 093.9427 334.2480 14.34217095930208
Epoch (UTC): 28 May 2015 06:52:24
Eccentricity: 0.0002312
inclination: 86.3999°
perigee height: 776 km
apogee height: 779 km
right ascension of ascending node: 209.8861°
argument of perigee: 93.9427°
revolutions per day: 14.34217095
mean anomaly at epoch: 334.2480°
orbit number at epoch: 93020

The dashed part of the orbit path shows where the satellite is in the earth's shadow,  

DLR